Weather History for Wadena, MN

Change the Weather History Date:

Tuesday, January 22, 2013

  Actual Average Record
Temperature  
Mean Temperature -12 °F -  
Max Temperature 0 °F 23 °F 51 °F (1942)
Min Temperature -23 °F 1 °F -42 °F (1936)
Degree Days  
Heating Degree Days 76    
Moisture  
Dew Point -21 °F    
Average Humidity 75    
Maximum Humidity 84    
Minimum Humidity 65    
Precipitation  
Precipitation 0.00 in - - ()
Sea Level Pressure  
Sea Level Pressure 30.24 in    
Wind  
Wind Speed 4 mph (WSW)    
Max Wind Speed 9 mph    
Max Gust Speed -    
Visibility 10 miles    
Events      
Averages and records for this station are not official NWS values.
T = Trace of Precipitation, MM = Missing Value Source: NWS Daily Summary

Daily Weather History Graph

Daily Weather History Graph

Search for Another Location

Airport:

Trip Planner

Search our weather history database for the weather conditions in past years. The results will help you decide how hot, cold, wet, or windy it might be!

Date:

Astronomy

Jan. 22, 2013 Rise Set
Actual Time 7:54 AM CST 5:10 PM CST
Civil Twilight 7:21 AM CST 5:43 PM CST
Nautical Twilight 6:44 AM CST 6:20 PM CST
Astronomical Twilight 6:09 AM CST 6:56 PM CST
Moon 1:31 PM CST (1/22) 4:19 AM CST (1/22)
Length of Visible Light 10h 22m
Length of Day
9h 16m
Waxing Gibbous, 83% of the Moon is Illuminated
Jan 22
Waxing Gibbous
Jan 26
Full
Feb 3
Last Quarter
Feb 10
New
Feb 17
First Quarter

Hourly Weather History & Observations

Time (CST) Temp. Windchill Dew Point Humidity Pressure Visibility Wind Dir Wind Speed Gust Speed Precip Events Conditions
12:15 AM -18.4 °F -31.4 °F -23.8 °F 76% 30.23 in 10.0 mi West 4.6 mph - N/A   Clear
12:35 AM -18.4 °F -31.4 °F -23.8 °F 76% 30.23 in 10.0 mi West 4.6 mph - N/A   Clear
12:53 AM -18.4 °F -28.9 °F -25.6 °F 70% 30.23 in 10.0 mi WNW 3.5 mph - N/A   Clear
1:15 AM -20.2 °F - -25.6 °F 76% 30.23 in 10.0 mi Calm Calm - N/A   Clear
1:35 AM -20.2 °F -30.9 °F -25.6 °F 76% 30.23 in 10.0 mi West 3.5 mph - N/A   Clear
1:53 AM -20.2 °F -30.9 °F -25.6 °F 76% 30.24 in 10.0 mi West 3.5 mph - N/A   Clear
2:15 AM -23.8 °F -35.0 °F -27.4 °F 83% 30.25 in 10.0 mi WSW 3.5 mph - N/A   Clear
2:34 AM -20.2 °F - -25.6 °F 76% 30.25 in 10.0 mi Calm Calm - N/A   Clear
2:53 AM -23.8 °F -35.0 °F -27.4 °F 83% 30.25 in 10.0 mi WSW 3.5 mph - N/A   Clear
3:15 AM -23.8 °F -35.0 °F -27.4 °F 83% 30.25 in 10.0 mi WSW 3.5 mph - N/A   Clear
3:35 AM -22.0 °F -33.0 °F -27.4 °F 76% 30.26 in 10.0 mi West 3.5 mph - N/A   Clear
3:53 AM -20.2 °F -33.5 °F -25.6 °F 76% 30.26 in 10.0 mi West 4.6 mph - N/A   Clear
4:15 AM -20.2 °F -30.9 °F -27.4 °F 69% 30.26 in 10.0 mi West 3.5 mph - N/A   Clear
4:35 AM -20.2 °F -33.5 °F -25.6 °F 76% 30.25 in 10.0 mi West 4.6 mph - N/A   Clear
4:53 AM -22.0 °F -33.0 °F -27.4 °F 76% 30.25 in 10.0 mi West 3.5 mph - N/A   Clear
5:15 AM -23.8 °F - -27.4 °F 83% 30.26 in 10.0 mi Calm Calm - N/A   Clear
5:35 AM -23.8 °F -35.0 °F -27.4 °F 83% 30.26 in 10.0 mi West 3.5 mph - N/A   Clear
5:53 AM -23.8 °F -39.8 °F -27.4 °F 83% 30.26 in 10.0 mi West 5.8 mph - N/A   Clear
6:15 AM -23.8 °F -37.7 °F -27.4 °F 83% 30.26 in 10.0 mi West 4.6 mph - N/A   Clear
6:35 AM -23.8 °F - -27.4 °F 83% 30.25 in 10.0 mi Calm Calm - N/A   Clear
6:52 AM -23.8 °F -37.7 °F -29.2 °F 76% 30.24 in 10.0 mi WSW 4.6 mph - N/A   Clear
7:15 AM -22.0 °F -35.6 °F -27.4 °F 76% 30.24 in 10.0 mi West 4.6 mph - N/A   Clear
7:35 AM -22.0 °F - -27.4 °F 76% 30.24 in 10.0 mi Calm Calm - N/A   Clear
7:53 AM -23.8 °F - -27.4 °F 83% 30.25 in 10.0 mi Calm Calm - N/A   Clear
8:15 AM -23.8 °F -37.7 °F -27.4 °F 83% 30.25 in 10.0 mi WSW 4.6 mph - N/A   Clear
8:35 AM -20.2 °F - -25.6 °F 76% 30.25 in 10.0 mi Calm Calm - N/A   Clear
8:49 AM -20.2 °F - -25.6 °F 76% 30.25 in 10.0 mi Calm Calm - N/A   Clear
9:15 AM -18.4 °F -31.4 °F -23.8 °F 76% 30.27 in 10.0 mi WSW 4.6 mph - N/A   Clear
9:35 AM -16.6 °F -26.8 °F -20.2 °F 84% 30.27 in 10.0 mi SW 3.5 mph - N/A   Clear
9:53 AM -14.8 °F -24.8 °F -20.2 °F 77% 30.26 in 10.0 mi WSW 3.5 mph - N/A   Clear
10:13 AM -13.0 °F -25.1 °F -18.4 °F 77% 30.26 in 10.0 mi WSW 4.6 mph - N/A   Clear
10:35 AM -13.0 °F -22.7 °F -18.4 °F 77% 30.26 in 10.0 mi WSW 3.5 mph - N/A   Clear
10:38 AM -11.2 °F - -16.6 °F 77% 30.27 in 10.0 mi Calm Calm - N/A   Clear
11:06 AM -9.4 °F -26.8 °F -16.6 °F 71% 30.27 in 10.0 mi West 9.2 mph - N/A   Clear
11:35 AM -9.4 °F -25.6 °F -16.6 °F 71% 30.27 in 10.0 mi West 8.1 mph - N/A   Clear
12:01 PM -7.6 °F -22.1 °F -16.6 °F 65% 30.25 in 10.0 mi West 6.9 mph - N/A   Clear
12:41 PM -7.6 °F -18.8 °F -14.8 °F 71% 30.24 in 10.0 mi West 4.6 mph - N/A   Clear
1:01 PM -5.8 °F -22.4 °F -14.8 °F 65% 30.24 in 10.0 mi WSW 9.2 mph - N/A   Clear
1:21 PM -5.8 °F -22.4 °F -14.8 °F 65% 30.23 in 10.0 mi SW 9.2 mph - N/A   Clear
2:01 PM -5.8 °F -18.4 °F -14.8 °F 65% 30.21 in 10.0 mi WSW 5.8 mph - N/A   Mostly Cloudy
2:21 PM -5.8 °F -16.7 °F -14.8 °F 65% 30.21 in 10.0 mi SW 4.6 mph - N/A   Scattered Clouds
2:41 PM -5.8 °F -18.4 °F -13.0 °F 71% 30.21 in 10.0 mi WSW 5.8 mph - N/A   Clear
3:01 PM -4.0 °F -14.6 °F -13.0 °F 65% 30.21 in 10.0 mi West 4.6 mph - N/A   Clear
3:21 PM -4.0 °F -14.6 °F -13.0 °F 65% 30.21 in 10.0 mi West 4.6 mph - N/A   Clear
3:41 PM -4.0 °F -19.0 °F -13.0 °F 65% 30.21 in 10.0 mi West 8.1 mph - N/A   Clear
6:41 PM -5.8 °F - -11.2 °F 77% 30.17 in 10.0 mi SSW 1.2 mph - N/A   Overcast
9:41 PM -2.2 °F -12.5 °F -7.6 °F 78% 30.14 in 10.0 mi SSW 4.6 mph - N/A   Overcast
10:21 PM -2.2 °F -12.5 °F -7.6 °F 78% 30.14 in 10.0 mi SSW 4.6 mph - N/A   Overcast
11:21 PM -0.4 °F - -5.8 °F 78% 30.14 in 10.0 mi SSW 1.2 mph - N/A   Overcast
11:41 PM -0.4 °F - -5.8 °F 78% 30.14 in 10.0 mi SW 2.3 mph - N/A   Overcast